Weather History for Wichita, KS

Change the Weather History Date:

Monday, January 7, 2013

  Actual Average Record
Temperature  
Mean Temperature 39 °F 32 °F  
Max Temperature 54 °F 42 °F 69 °F (1965)
Min Temperature 24 °F 22 °F -10 °F (1912)
Degree Days  
Heating Degree Days 26 33  
Month to date heating degree days 241 231  
Since 1 July heating degree days 1805 2074  
Cooling Degree Days 0 0  
Month to date cooling degree days 0 0  
Year to date cooling degree days 0 0  
Moisture  
Dew Point 23 °F    
Average Humidity 54    
Maximum Humidity 75    
Minimum Humidity 32    
Precipitation  
Precipitation 0.00 in 0.02 in 0.95 in (1937)
Month to date precipitation 0.06 0.17  
Year to date precipitation 0.06 0.17  
Snow  
Snow 0.00 in 0.10 in 5.90 in (1913)
Month to date snowfall 0.7 0.8  
Since 1 July snowfall 3.2 6.4  
Snow Depth 0.00 in    
Sea Level Pressure  
Sea Level Pressure 30.15 in    
Wind  
Wind Speed 14 mph (South)    
Max Wind Speed 23 mph    
Max Gust Speed 29 mph    
Visibility 10 miles    
Events      
T = Trace of Precipitation, MM = Missing Value Source: NWS Daily Summary

Daily Weather History Graph

Daily Weather History Graph

Search for Another Location

Airport:

Trip Planner

Search our weather history database for the weather conditions in past years. The results will help you decide how hot, cold, wet, or windy it might be!

Date:

Astronomy

Jan. 07, 2013 Rise Set
Actual Time 7:45 AM CST 5:27 PM CST
Civil Twilight 7:16 AM CST 5:56 PM CST
Nautical Twilight 6:43 AM CST 6:29 PM CST
Astronomical Twilight 6:11 AM CST 7:00 PM CST
Moon 3:11 AM CST (1/7) 1:38 PM CST (1/7)
Length of Visible Light 10h 40m
Length of Day
9h 42m
Waning Crescent, 22% of the Moon is Illuminated
Jan 7
Waning Crescent
Jan 11
New
Jan 18
First Quarter
Jan 26
Full
Feb 3
Last Quarter

Hourly Weather History & Observations

Time (CST) Temp. Windchill Dew Point Humidity Pressure Visibility Wind Dir Wind Speed Gust Speed Precip Events Conditions
12:53 AM 32.0 °F 23.6 °F 21.9 °F 66% 30.26 in 10.0 mi SSE 10.4 mph - N/A   Clear
1:53 AM 30.9 °F 21.7 °F 21.0 °F 67% 30.25 in 10.0 mi South 11.5 mph - N/A   Clear
2:53 AM 30.0 °F 19.5 °F 21.0 °F 69% 30.25 in 10.0 mi South 13.8 mph - N/A   Clear
3:53 AM 28.9 °F 19.2 °F 21.0 °F 72% 30.25 in 10.0 mi South 11.5 mph - N/A   Partly Cloudy
4:53 AM 28.0 °F 18.1 °F 19.9 °F 72% 30.23 in 10.0 mi South 11.5 mph - N/A   Partly Cloudy
5:53 AM 27.0 °F 17.3 °F 19.9 °F 75% 30.22 in 10.0 mi South 10.4 mph - N/A   Scattered Clouds
6:53 AM 24.1 °F 16.0 °F 18.0 °F 77% 30.23 in 10.0 mi South 6.9 mph - N/A   Scattered Clouds
7:53 AM 27.0 °F 18.0 °F 19.9 °F 75% 30.24 in 10.0 mi South 9.2 mph - N/A   Mostly Cloudy
8:53 AM 30.9 °F 21.7 °F 21.9 °F 69% 30.25 in 10.0 mi South 11.5 mph - N/A   Mostly Cloudy
9:53 AM 36.0 °F 27.1 °F 23.0 °F 59% 30.23 in 10.0 mi South 13.8 mph - N/A   Mostly Cloudy
10:53 AM 39.0 °F 29.6 °F 24.1 °F 55% 30.23 in 10.0 mi South 18.4 mph 24.2 mph N/A   Mostly Cloudy
11:53 AM 45.0 °F 37.1 °F 24.1 °F 44% 30.19 in 10.0 mi SSW 19.6 mph 25.3 mph N/A   Mostly Cloudy
12:53 PM 50.0 °F - 24.8 °F 37% 30.11 in 10.0 mi SSW 21.9 mph 27.6 mph N/A   Mostly Cloudy
1:53 PM 53.1 °F - 24.1 °F 32% 30.09 in 10.0 mi SSW 18.4 mph 24.2 mph N/A   Mostly Cloudy
2:53 PM 53.1 °F - 24.1 °F 32% 30.08 in 10.0 mi South 21.9 mph 27.6 mph N/A   Mostly Cloudy
3:53 PM 51.1 °F - 24.1 °F 35% 30.08 in 10.0 mi South 18.4 mph 23.0 mph N/A   Mostly Cloudy
4:53 PM 48.9 °F - 25.0 °F 39% 30.07 in 10.0 mi South 13.8 mph - N/A   Mostly Cloudy
5:53 PM 46.0 °F 40.2 °F 26.1 °F 46% 30.07 in 10.0 mi South 12.7 mph - N/A   Mostly Cloudy
6:53 PM 44.1 °F 36.8 °F 26.1 °F 49% 30.08 in 10.0 mi South 16.1 mph - N/A   Mostly Cloudy
7:53 PM 43.0 °F 35.7 °F 26.1 °F 51% 30.07 in 10.0 mi South 15.0 mph - N/A   Mostly Cloudy
8:53 PM 41.0 °F 33.5 °F 26.1 °F 55% 30.06 in 10.0 mi South 13.8 mph - N/A   Scattered Clouds
9:53 PM 39.0 °F 31.0 °F 25.0 °F 57% 30.05 in 10.0 mi South 13.8 mph - N/A   Mostly Cloudy
10:53 PM 36.0 °F 29.0 °F 25.0 °F 64% 30.06 in 10.0 mi South 9.2 mph - N/A   Mostly Cloudy
11:53 PM 35.1 °F 26.9 °F 25.0 °F 67% 30.05 in 10.0 mi South 11.5 mph - N/A   Mostly Cloudy